Location: Table Mountain
(47.2500°N, 120.5778°W)
Time: 00:49:30
(UTC-07:00)

UKube-1 - Visible Passes

Search period start: 20 March 2019 00:00
Search period end: 30 March 2019 00:00
Orbit: 613 x 620 km, 98.4° (Epoch: 19 March)

Date Brightness Start Highest point End Pass type
(mag) Time Alt. Az. Time Alt. Az. Time Alt. Az.
20 Mar ? 03:13:17 18° NE 03:13:17 18° NE 03:15:18 10° NNE visible
20 Mar ? 04:50:22 21° NW 04:50:22 21° NW 04:51:59 10° NNW visible
21 Mar ? 03:29:26 24° NE 03:29:26 24° NE 03:31:53 10° N visible
21 Mar ? 05:06:31 19° NW 05:06:31 19° NW 05:08:00 10° NNW visible
22 Mar ? 03:45:35 31° NNE 03:45:35 31° NNE 03:48:21 10° N visible
22 Mar ? 05:22:39 16° NW 05:22:39 16° NW 05:23:54 10° NW visible
23 Mar ? 04:01:43 40° NNE 04:01:43 40° NNE 04:04:44 10° N visible
23 Mar ? 05:38:47 13° WNW 05:38:47 13° WNW 05:39:32 10° NW visible
24 Mar ? 02:40:46 10° ENE 02:41:27 11° NE 02:42:31 10° NE visible
24 Mar ? 04:17:51 48° N 04:17:51 48° N 04:21:01 10° NNW visible
25 Mar ? 02:56:54 15° ENE 02:57:28 15° ENE 02:59:53 10° NNE visible
25 Mar ? 04:33:58 49° NW 04:33:58 49° NW 04:37:14 10° NNW visible
26 Mar ? 03:13:02 20° ENE 03:13:31 20° ENE 03:16:40 10° NNE visible
26 Mar ? 04:50:06 40° WNW 04:50:06 40° WNW 04:53:22 10° NNW visible
27 Mar ? 03:29:09 27° ENE 03:29:36 28° ENE 03:33:15 10° N visible
27 Mar ? 05:06:13 30° WNW 05:06:13 30° WNW 05:09:23 10° NNW visible
28 Mar ? 03:45:17 37° E 03:45:43 38° ENE 03:49:43 10° N visible
28 Mar ? 05:22:21 22° W 05:22:21 22° W 05:25:16 10° NW visible
29 Mar ? 04:01:23 52° E 04:01:53 55° ENE 04:06:05 10° N visible
29 Mar ? 05:38:28 16° W 05:38:28 16° W 05:40:55 10° NW visible
